Temp
70 69 69 69 68 67 67 66 66 65 66 66 66 65 63 62 63 63 63 62 62 61
69 67 67 67 67 65 65 67 65 65 64 65 65 64 62 61 60 60 60 61 60 59
67 65 65 65 62 62 62 62 62 63 63 63 63 61 60 59 60 58 58 59 57 57
64 63 61 61 60 59 59 59 59 60 59 59 59 58 57 57 58 56 55 56 56 56
60 60 58 57 57 57 57 57 58 59 59 60 58 55 54 54 54 54 53 54 54 55
57 55 54 55 55 56 56 56 57 58 58 55 54 53 53 52 52 51 52 52 52 52
54 54 55 55 55 56 56 56 57 57 57 53 52 51 51 50 49 49 50 51 52 53
55 55 55 54 55 55 54 55 56 55 54 52 51 49 46 46 45 45 47 50 54 57
56 56 54 53 52 52 51 50 52 52 51 50 51 46 46 47 43 45 52 50 51 53
56 55 53 52 51 48 47 47 51 52 52 48 45 45 44 46 45 45 49 51 52 54
54 52 51 49 47 51 51 49 49 51 51 48 47 44 43 44 44 49 50 51 53 48
52 49 48 47 44 44 48 50 50 51 50 49 47 43 42 42 41 45 45 51 50 47
50 50 51 50 44 48 50 47 45 49 50 47 45 43 42 42 43 42 44 48 47 46
47 50 49 49 45 45 47 43 41 45 48 48 43 42 42 42 44 43 44 47 45 45
MSLP
1008.51 1008.65 1008.96 1009.58 1010.21 1010.86 1011.10 1011.63 1011.79 1011.83 1011.71 1011.90 1012.28 1012.59 1012.81 1012.68 1012.69 1012.56 1012.50 1012.50 1012.32 1012.27
1009.32 1009.63 1010.12 1010.66 1011.04 1011.36 1011.63 1011.95 1011.97 1011.95 1012.08 1012.39 1012.74 1013.09 1013.13 1013.21 1013.31 1013.05 1012.82 1012.65 1012.50 1012.50
1010.29 1010.80 1011.06 1011.52 1012.01 1012.15 1012.30 1012.44 1012.69 1012.91 1013.05 1013.14 1013.20 1013.42 1013.51 1013.55 1013.45 1013.41 1013.07 1012.85 1012.82 1012.61
1011.20 1011.62 1011.79 1012.29 1012.77 1013.08 1013.31 1013.63 1013.89 1013.85 1013.76 1013.71 1013.77 1014.00 1013.98 1013.94 1014.01 1013.90 1013.69 1013.48 1013.34 1012.98
1011.91 1012.47 1012.90 1013.48 1013.84 1014.02 1014.39 1014.43 1014.42 1014.26 1014.20 1014.15 1014.52 1014.88 1015.03 1015.05 1014.77 1014.53 1014.31 1013.97 1013.47 1013.21
1012.98 1013.64 1014.06 1014.40 1014.72 1014.79 1014.80 1014.77 1014.61 1014.45 1014.52 1015.09 1015.40 1015.54 1015.62 1015.48 1015.25 1015.11 1014.79 1014.33 1013.92 1013.36
1014.05 1014.45 1014.75 1015.00 1015.16 1015.29 1015.43 1015.28 1015.28 1015.31 1015.44 1015.80 1015.96 1016.14 1016.20 1016.02 1015.76 1015.40 1014.98 1014.52 1013.98 1013.34
1014.60 1014.92 1015.36 1015.75 1015.95 1016.07 1016.03 1016.09 1016.04 1015.86 1016.06 1016.30 1016.49 1017.06 1016.97 1016.58 1016.12 1015.68 1015.02 1014.48 1013.88 1013.30
1015.35 1015.72 1016.21 1016.40 1016.59 1016.69 1016.72 1016.69 1016.64 1016.60 1016.81 1017.09 1017.45 1017.70 1017.32 1016.85 1016.29 1015.70 1014.91 1014.43 1013.79 1013.25
1015.96 1016.52 1016.93 1017.12 1017.26 1017.34 1017.39 1017.28 1017.17 1017.30 1017.39 1017.86 1018.22 1018.07 1017.61 1016.91 1016.30 1015.75 1015.14 1014.54 1013.84 1013.22
1016.83 1017.37 1017.73 1017.76 1017.93 1017.87 1017.93 1017.91 1017.71 1017.78 1017.90 1018.35 1018.61 1018.34 1017.88 1017.19 1016.59 1015.90 1015.31 1014.63 1014.03 1014.02
1017.81 1018.25 1018.34 1018.49 1018.82 1018.65 1018.52 1018.43 1018.35 1018.31 1018.61 1018.73 1018.85 1018.80 1018.26 1017.72 1016.87 1016.26 1015.60 1014.84 1014.49 1014.26
1018.56 1018.64 1018.90 1019.08 1019.24 1019.18 1019.16 1019.26 1019.20 1019.05 1019.08 1019.31 1019.37 1019.15 1018.53 1018.08 1017.16 1016.36 1015.60 1015.01 1014.80 1014.55
1019.16 1019.39 1019.58 1019.83 1020.03 1020.02 1019.92 1020.10 1020.00 1019.78 1019.66 1019.62 1019.65 1019.32 1018.91 1018.50 1017.53 1016.85 1016.20 1015.73 1015.28 1015.00
Wind_Speed
5 7 6 6 5 5 6 5 6 6 6 7 7 6 6 3 3 6 4 6 4 3
8 9 11 11 9 6 5 4 6 7 7 7 7 6 6 5 6 6 5 6 6 4
12 12 12 12 11 10 8 8 8 7 7 7 7 7 7 5 6 6 5 5 7 6
13 13 12 12 10 8 9 8 8 7 7 7 7 7 7 7 8 9 8 8 8 8
13 12 11 9 8 8 7 7 7 6 6 6 11 12 11 10 10 9 9 9 9 9
10 8 8 8 6 6 6 5 5 5 8 11 10 11 10 10 10 9 8 8 8 9
8 7 7 6 7 7 7 10 10 10 10 10 10 11 10 10 9 9 9 9 9 10
7 7 8 9 10 9 10 10 10 10 10 8 10 9 9 9 9 9 9 9 8 10
10 11 9 9 8 9 9 8 10 8 8 10 9 12 16 13 6 7 8 9 9 9
10 11 10 9 9 7 7 7 7 6 7 8 8 14 16 18 6 7 8 9 8 8
11 11 9 9 8 8 6 5 6 7 7 6 8 16 17 19 8 7 9 9 8 9
11 9 8 9 7 6 5 8 7 5 8 8 8 17 17 14 7 6 8 9 12 12
9 9 10 7 6 5 7 8 6 7 8 12 9 15 19 16 4 8 8 11 12 16
7 11 10 11 7 8 9 7 7 8 9 7 8 12 19 18 8 8 7 10 10 10
Wind_Direction
99 69 65 86 90 88 94 90 79 72 63 57 51 41 37 31 2 3 343 335 348 318
70 66 71 71 73 74 75 81 64 58 58 51 49 44 31 24 6 3 345 334 348 338
76 73 74 72 63 55 50 49 43 37 36 37 39 30 31 16 354 2 351 353 349 344
74 67 64 62 56 53 50 44 38 41 42 43 41 25 24 7 16 23 10 2 352 337
72 65 63 61 55 55 57 48 44 38 37 31 43 45 38 25 13 6 355 335 342 325
75 74 75 75 69 71 69 61 44 42 38 65 52 42 30 18 4 348 332 330 317 310
82 84 82 75 59 51 45 38 39 49 63 64 53 37 18 5 346 330 326 313 307 301
82 75 64 54 57 52 44 38 38 53 50 66 52 28 8 350 334 319 313 309 319 338
73 71 66 58 56 52 44 36 47 40 57 50 45 16 6 353 322 314 330 334 328 325
75 73 66 57 51 55 44 34 44 35 72 64 38 15 0 353 340 323 324 324 322 350
70 69 64 57 39 38 47 44 37 32 50 75 35 18 1 354 332 343 341 327 349 21
72 69 64 61 42 20 40 39 29 27 55 49 33 9 4 351 327 340 319 6 19 8
73 73 69 67 43 41 52 41 23 24 56 50 24 3 359 352 334 355 357 13 9 5
73 66 49 56 39 27 55 42 22 31 27 43 38 3 355 355 2 7 354 12 0 352